Weather in Krasnoleninsky

Russia / Khanty-Mansi Autonomous Okrug — Yugra     61°37′45″N   67°47′53″E
temp.,
°C
wind,
m/s
gust,
m/s
humid.,
%
clouds,
%
prec.,
mm/h
press.,
hPa
HPBL,
m
20 january, wed
wed2023:00−29s23920 0.0 102352
02:00−30s358864 0.0 102391
05:00−29s368679 0.0 1023131
08:00−26s388496 0.0 1021199
11:00−24s488598 0.0 1021229
14:00−22sse3787100 0.0 1020217
17:00−21se3788100 0.0 1019232
20:00−20se3886100 0.0 1017267
21 january, thu
thu2123:00−20ese3889100 0.0 1016289
02:00−20ese3890100 0.0 1013344
05:00−21e3797100 0.2 1012393
08:00−22e3797100 0.6 1010414
11:00−22e3696100 0.9 1010413
14:00−22e3596100 0.4 1009493
17:00−23ene2698100 0.7 1010370
20:00−24ne3697100 0.2 1010263
22 january, fri
fri2223:00−25ne3697100 0.4 1010294
02:00−26ne3796100 0.1 1011358
05:00−27nne3895100 0.2 1012393
08:00−28nne4894100 0.1 1014454
11:00−28nne4994100 0.1 1016426
14:00−31nne4894100 0.0 1019383
17:00−36n31095100 0.1 1022315
20:00−38n399439 0.0 1025261
23 january, sat
sat2323:00−39n269630 0.0 1027166
02:00−40n259618 0.0 102992
05:00−41n229618 0.0 103148
08:00−41nnw229625 0.0 103322
11:00−39nnw139528 0.0 103493
14:00−37nw129434 0.0 1035178
17:00−41nnw119733 0.0 103518
20:00−41ene019623 0.0 103618
24 january, sun
sun2423:00−42se119625 0.0 103618
02:00−41sse129727 0.0 103718
05:00−41se229729 0.0 103720
08:00−41se239778 0.0 103768
11:00−38sse369589 0.0 1036199
14:00−36se3794100 0.0 1035251
17:00−35se4893100 0.0 1033295
20:00−33se4997100 0.1 1032303